Hourly Data Report for December 13, 2011

HALIFAX STANFIELD INT'L A
NOVA SCOTIA

44°52'48.060" N
63°30'00.050" W
145.40 m
8202250
71395
YHZ

Download Data

Hourly Data (December 2011)
Hourly Data Report for December 13, 2011
TIME
LST
Temp Definition
°C
Dew Point Definition
°C
Rel Hum Definition
%
Precip. Amount Definition
mm

Wind Dir Definition
10's deg

Wind Spd Definition
km/h
Visibility Definition
km
Stn Press Definition
kPa
Hmdx Definition


Wind Chill Definition


Weather Definition


00:00 1.2 0.5 95   21 9 24.1 101.24     Mostly Cloudy
01:00 0.5 -0.2 95   21 13 24.1 101.21     Mostly Cloudy
02:00 2.0 1.6 97   20 15 24.1 101.17     Cloudy
03:00 2.3 1.9 97   20 13 16.1 101.15     Cloudy
04:00 1.6 1.4 99   21 15 0.8 101.06     Fog
05:00 1.2 1.1 99   20 7 3.2 101.00     Fog
06:00 1.8 1.5 98   21 11 1.0 100.97     Fog
07:00 1.7 1.5 99   21 9 0.6 100.95     Fog
08:00 1.5 1.4 99   21 13 0.8 100.94     Fog
09:00 2.4 2.3 99   21 7 0.8 100.87     Fog
10:00 3.6 3.4 99   20 9 2.4 100.85     Fog
11:00 4.6 4.6 100   21 15 2.4 100.79     Fog
12:00 4.8 4.7 99   21 15 9.7 100.71     Fog
13:00 4.9 4.7 99   23 11 24.1 100.65     Mostly Cloudy
14:00 4.9 3.9 93   26 13 24.1 100.57     Mostly Cloudy
15:00 5.5 2.8 83   28 7 24.1 100.51     Mostly Cloudy
16:00 4.6 2.2 84   31 6 24.1 100.50     Mostly Cloudy
17:00 2.8 1.0 88   33 6 24.1 100.48     Mainly Clear
18:00 3.9 1.6 85   35 7 24.1 100.46     Mainly Clear
19:00 3.1 1.6 90   35 11 24.1 100.49     Cloudy
20:00 2.5 1.8 95   36 13 24.1 100.49     Cloudy
21:00 2.1 0.5 89   36 11 24.1 100.51     Cloudy
22:00 0.8 -0.8 89   35 17 24.1 100.52     Mostly Cloudy
23:00 -0.6 -1.7 92   34 17 24.1 100.53   -6 Mostly Cloudy

Notes on Data Quality.

Legend

  • E = Estimated
  • M = Missing
  • NA = Not Available*
  • [empty] = Indicates an unobserved value
Date modified: